User: anonymous   Login
Location: Hurecourt
(47.9030°N, 6.0653°E)
Time: 01:44:50
(UTC+00:00)
Language:

Cosmos 405 Rocket - Orbit

View from above orbital plane
View from above orbital plane
View from above satellite
View from above satellite

Ground track
Ground track

The orbit data is extracted from the following two-line orbital elements,

1  5118U 71028B   20272.52913018 +.00001202 +00000-0 +61942-4 0  9996
2  5118 081.2567 217.9290 0045965 216.7420 143.0656 15.14670424685421
Epoch (UTC): 28 September 2020 12:41:56
Eccentricity: 0.0045965
inclination: 81.2567°
perigee height: 490 km
apogee height: 554 km
right ascension of ascending node: 217.9290°
argument of perigee: 216.7420°
revolutions per day: 15.14670424
mean anomaly at epoch: 143.0656°
orbit number at epoch: 68542

The dashed part of the orbit path shows where the satellite is in the earth's shadow,  

DLR